TimeEST,TemperatureF,Dew PointF,Humidity,Sea Level PressureIn,VisibilityMPH,Wind Direction,Wind SpeedMPH,Gust SpeedMPH,PrecipitationIn,Events,Conditions,WindDirDegrees,DateUTC
12:53 AM,35.1,26.1,70,30.19,10.0,Calm,Calm,-,N/A,,Mostly Cloudy,0,2012-12-07 05:53:00
1:53 AM,34.0,25.0,70,30.18,10.0,Calm,Calm,-,N/A,,Partly Cloudy,0,2012-12-07 06:53:00
2:53 AM,36.0,27.0,70,30.17,10.0,ENE,3.5,-,N/A,,Overcast,60,2012-12-07 07:53:00
3:53 AM,37.0,28.0,70,30.15,10.0,Calm,Calm,-,N/A,,Overcast,0,2012-12-07 08:53:00
4:53 AM,36.0,30.0,79,30.14,10.0,Calm,Calm,-,0.00,Rain,Light Rain,0,2012-12-07 09:53:00
5:53 AM,36.0,30.9,82,30.14,9.0,Calm,Calm,-,0.03,Rain,Light Rain,0,2012-12-07 10:53:00
7:53 AM,36.0,34.0,93,30.14,6.0,Calm,Calm,-,0.02,Rain,Light Rain,0,2012-12-07 12:53:00
8:53 AM,37.0,34.0,89,30.14,5.0,Calm,Calm,-,0.02,Rain,Light Rain,0,2012-12-07 13:53:00
9:26 AM,37.4,33.8,87,30.12,7.0,Calm,Calm,-,0.00,Rain,Light Rain,0,2012-12-07 14:26:00
9:46 AM,37.4,35.6,93,30.13,7.0,North,3.5,-,0.00,Rain,Light Rain,350,2012-12-07 14:46:00
9:53 AM,37.9,35.1,89,30.14,7.0,North,3.5,-,0.00,,Overcast,10,2012-12-07 14:53:00
10:53 AM,39.0,36.0,89,30.13,7.0,North,3.5,-,N/A,,Overcast,360,2012-12-07 15:53:00
11:53 AM,39.9,36.0,86,30.10,7.0,NNW,3.5,-,0.00,,Overcast,340,2012-12-07 16:53:00
12:14 PM,41.0,37.4,87,30.08,8.0,Calm,Calm,-,N/A,,Overcast,0,2012-12-07 17:14:00
12:23 PM,41.0,37.4,87,30.07,8.0,Calm,Calm,-,N/A,,Overcast,0,2012-12-07 17:23:00
12:53 PM,42.1,37.0,82,30.07,9.0,Calm,Calm,-,N/A,,Overcast,0,2012-12-07 17:53:00
1:23 PM,42.8,37.4,81,30.05,8.0,NNW,3.5,-,N/A,,Overcast,340,2012-12-07 18:23:00
1:53 PM,42.1,37.0,82,30.06,8.0,NNW,5.8,-,N/A,,Overcast,330,2012-12-07 18:53:00
2:37 PM,41.0,37.4,87,30.04,5.0,North,5.8,-,0.00,Rain,Light Rain,10,2012-12-07 19:37:00
2:53 PM,41.0,37.9,89,30.05,5.0,NNE,5.8,-,0.00,,Overcast,20,2012-12-07 19:53:00
3:53 PM,41.0,37.9,89,30.05,4.0,North,4.6,-,N/A,,Overcast,10,2012-12-07 20:53:00
4:53 PM,41.0,37.9,89,30.04,6.0,North,3.5,-,N/A,,Scattered Clouds,10,2012-12-07 21:53:00
5:46 PM,39.2,37.4,93,30.03,5.0,Calm,Calm,-,N/A,,Scattered Clouds,0,2012-12-07 22:46:00
5:53 PM,39.9,37.9,93,30.04,4.0,Calm,Calm,-,N/A,,Scattered Clouds,0,2012-12-07 22:53:00
6:53 PM,39.9,37.0,89,30.04,5.0,NNE,3.5,-,N/A,,Clear,20,2012-12-07 23:53:00
8:53 PM,39.0,37.0,93,30.02,5.0,North,4.6,-,N/A,,Partly Cloudy,360,2012-12-08 01:53:00
9:53 PM,39.0,37.0,93,30.00,5.0,North,3.5,-,N/A,,Mostly Cloudy,10,2012-12-08 02:53:00
10:53 PM,39.0,37.0,93,29.99,4.0,North,3.5,-,N/A,,Mostly Cloudy,10,2012-12-08 03:53:00
11:53 PM,37.9,36.0,93,29.97,4.0,Calm,Calm,-,N/A,,Clear,0,2012-12-08 04:53:00